Estación de Los Maquis
Ultimos registro cada 15 minutos 78
| N° | Estación | Fecha / Hora | Temperatura | Humedad | Lluvia | Velocidad | Dirección | Radiación | Presion |
| 78 | Los Maquis | 08-05-2026 19:15 | 11,2 | 69 | 0 | 0 | 171 | 0 | 1023,6 |
| 77 | Los Maquis | 08-05-2026 19:00 | 11,8 | 68 | 0 | 0 | 77 | 0 | 1023,6 |
| 76 | Los Maquis | 08-05-2026 18:45 | 12,1 | 67 | 0 | 0 | 136 | 0 | 1023,6 |
| 75 | Los Maquis | 08-05-2026 18:30 | 12,6 | 65 | 0 | 0 | 150 | 0 | 1023,6 |
| 74 | Los Maquis | 08-05-2026 18:15 | 13,3 | 62 | 0 | 0 | 143 | 0 | 1023,5 |
| 73 | Los Maquis | 08-05-2026 18:00 | 14,1 | 60 | 0 | 0 | 164 | 0 | 1023,4 |
| 72 | Los Maquis | 08-05-2026 17:45 | 15,1 | 55 | 0 | 0,9 | 111 | 5 | 1023,2 |
| 71 | Los Maquis | 08-05-2026 17:30 | 15,5 | 54 | 0 | 4 | 288 | 14 | 1023,3 |
| 70 | Los Maquis | 08-05-2026 17:15 | 16,1 | 52 | 0 | 4,5 | 271 | 42 | 1023,4 |
| 69 | Los Maquis | 08-05-2026 17:00 | 16,6 | 50 | 0 | 3,1 | 285 | 81 | 1023,2 |
| 68 | Los Maquis | 08-05-2026 16:45 | 17 | 49 | 0 | 3,6 | 275 | 132 | 1023,2 |
| 67 | Los Maquis | 08-05-2026 16:30 | 17,2 | 50 | 0 | 3,6 | 275 | 185 | 1023,1 |
| 66 | Los Maquis | 08-05-2026 16:15 | 17,4 | 48 | 0 | 2,7 | 245 | 227 | 1023,3 |
| 65 | Los Maquis | 08-05-2026 16:00 | 17,5 | 47 | 0 | 1,8 | 261 | 271 | 1023,4 |
| 64 | Los Maquis | 08-05-2026 15:45 | 17,7 | 45 | 0 | 5,8 | 236 | 302 | 1023,3 |
| 63 | Los Maquis | 08-05-2026 15:30 | 17,6 | 43 | 0 | 6,3 | 267 | 343 | 1023,3 |
| 62 | Los Maquis | 08-05-2026 15:15 | 17,9 | 43 | 0 | 4 | 242 | 374 | 1023,2 |
| 61 | Los Maquis | 08-05-2026 15:00 | 18,1 | 44 | 0 | 2,2 | 272 | 406 | 1023,5 |
| 60 | Los Maquis | 08-05-2026 14:45 | 18,3 | 43 | 0 | 4 | 254 | 434 | 1023,6 |
| 59 | Los Maquis | 08-05-2026 14:30 | 18,2 | 41 | 0 | 1,8 | 238 | 461 | 1023,5 |
| 58 | Los Maquis | 08-05-2026 14:15 | 17,9 | 40 | 0 | 0,9 | 324 | 482 | 1023,8 |
| 57 | Los Maquis | 08-05-2026 14:00 | 17,8 | 41 | 0 | 2,7 | 280 | 504 | 1024 |
| 56 | Los Maquis | 08-05-2026 13:45 | 17,8 | 40 | 0 | 1,3 | 219 | 520 | 1024,3 |
| 55 | Los Maquis | 08-05-2026 13:30 | 17,3 | 41 | 0 | 0,9 | 304 | 534 | 1024,4 |
| 54 | Los Maquis | 08-05-2026 13:15 | 17 | 48 | 0 | 0,4 | 329 | 543 | 1024,7 |
| 53 | Los Maquis | 08-05-2026 13:00 | 16,8 | 52 | 0 | 1,3 | 289 | 547 | 1025 |
| 52 | Los Maquis | 08-05-2026 12:45 | 16 | 57 | 0 | 1,3 | 328 | 552 | 1025,2 |
| 51 | Los Maquis | 08-05-2026 12:30 | 15,6 | 57 | 0 | 0,9 | 358 | 552 | 1025,4 |
| 50 | Los Maquis | 08-05-2026 12:15 | 15,3 | 57 | 0 | 0 | 208 | 550 | 1025,7 |
| 49 | Los Maquis | 08-05-2026 12:00 | 14,8 | 60 | 0 | 1,3 | 331 | 541 | 1025,8 |
| 48 | Los Maquis | 08-05-2026 11:45 | 14,7 | 62 | 0 | 1,8 | 277 | 534 | 1025,8 |
| 47 | Los Maquis | 08-05-2026 11:30 | 14,2 | 64 | 0 | 0,9 | 278 | 522 | 1025,9 |
| 46 | Los Maquis | 08-05-2026 11:15 | 13,5 | 67 | 0 | 1,3 | 334 | 503 | 1026,1 |
| 45 | Los Maquis | 08-05-2026 11:00 | 13,1 | 71 | 0 | 0,9 | 46 | 485 | 1026,3 |
| 44 | Los Maquis | 08-05-2026 10:45 | 12,3 | 75 | 0 | 0 | 30 | 459 | 1026,8 |
| 43 | Los Maquis | 08-05-2026 10:30 | 11,2 | 78 | 0 | 0 | 16 | 431 | 1027,1 |
| 42 | Los Maquis | 08-05-2026 10:15 | 10,6 | 80 | 0 | 0,9 | 315 | 404 | 1027,3 |
| 41 | Los Maquis | 08-05-2026 10:00 | 9,8 | 85 | 0 | 0,9 | 344 | 374 | 1027,2 |
| 40 | Los Maquis | 08-05-2026 09:45 | 8,9 | 86 | 0 | 0 | 300 | 332 | 1027,5 |
| 39 | Los Maquis | 08-05-2026 09:30 | 8,3 | 88 | 0 | 0 | 11 | 287 | 1027,5 |
| 38 | Los Maquis | 08-05-2026 09:15 | 7,2 | 92 | 0 | 0,4 | 73 | 253 | 1027,5 |
| 37 | Los Maquis | 08-05-2026 09:00 | 6,3 | 95 | 0 | 0 | 355 | 190 | 1027,6 |
| 36 | Los Maquis | 08-05-2026 08:45 | 5,3 | 95 | 0 | 0,9 | 305 | 139 | 1027,3 |
| 35 | Los Maquis | 08-05-2026 08:30 | 4,2 | 95 | 0 | 0,4 | 69 | 88 | 1027 |
| 34 | Los Maquis | 08-05-2026 08:15 | 3,8 | 95 | 0 | 0 | 154 | 16 | 1026,8 |
| 33 | Los Maquis | 08-05-2026 08:00 | 3,7 | 95 | 0 | 0 | 88 | 12 | 1026,6 |
| 32 | Los Maquis | 08-05-2026 07:45 | 3,5 | 95 | 0 | 0 | 104 | 11 | 1027,1 |
| 31 | Los Maquis | 08-05-2026 07:30 | 3,3 | 95 | 0 | 0 | 185 | 5 | 1027 |
| 30 | Los Maquis | 08-05-2026 07:15 | 3,1 | 95 | 0 | 0 | 73 | 0 | 1027,1 |
| 29 | Los Maquis | 08-05-2026 07:00 | 3,5 | 95 | 0 | 0 | 127 | 0 | 1027,2 |
| 28 | Los Maquis | 08-05-2026 06:45 | 3,4 | 95 | 0 | 0 | 76 | 0 | 1027,4 |
| 27 | Los Maquis | 08-05-2026 06:30 | 3,3 | 95 | 0 | 0 | 168 | 0 | 1027,6 |
| 26 | Los Maquis | 08-05-2026 06:15 | 3,2 | 95 | 0 | 0 | 194 | 0 | 1027,7 |
| 25 | Los Maquis | 08-05-2026 06:00 | 3,4 | 95 | 0 | 0 | 98 | 0 | 1027,9 |
| 24 | Los Maquis | 08-05-2026 05:45 | 3,3 | 94 | 0 | 0 | 158 | 0 | 1027,8 |
| 23 | Los Maquis | 08-05-2026 05:30 | 3,8 | 95 | 0 | 0 | 121 | 0 | 1027,6 |
| 22 | Los Maquis | 08-05-2026 05:15 | 4,1 | 95 | 0 | 0 | 142 | 0 | 1027,6 |
| 21 | Los Maquis | 08-05-2026 05:00 | 3,9 | 94 | 0 | 0 | 168 | 0 | 1027,4 |
| 20 | Los Maquis | 08-05-2026 04:45 | 4,4 | 95 | 0 | 0 | 121 | 0 | 1027,3 |
| 19 | Los Maquis | 08-05-2026 04:30 | 4,4 | 95 | 0 | 0 | 154 | 0 | 1027,1 |
| 18 | Los Maquis | 08-05-2026 04:15 | 4,3 | 94 | 0 | 0 | 180 | 0 | 1027,2 |
| 17 | Los Maquis | 08-05-2026 04:00 | 4,6 | 94 | 0 | 0 | 120 | 0 | 1027,3 |
| 16 | Los Maquis | 08-05-2026 03:45 | 4,7 | 94 | 0 | 0 | 120 | 0 | 1027,4 |
| 15 | Los Maquis | 08-05-2026 03:30 | 4,8 | 94 | 0 | 0 | 196 | 0 | 1027,5 |
| 14 | Los Maquis | 08-05-2026 03:15 | 4,9 | 94 | 0 | 0 | 106 | 0 | 1027,8 |
| 13 | Los Maquis | 08-05-2026 03:00 | 5 | 94 | 0 | 0 | 180 | 0 | 1027,9 |
| 12 | Los Maquis | 08-05-2026 02:45 | 5,2 | 93 | 0 | 0 | 180 | 0 | 1027,9 |
| 11 | Los Maquis | 08-05-2026 02:30 | 5,5 | 94 | 0 | 0 | 180 | 0 | 1028,1 |
| 10 | Los Maquis | 08-05-2026 02:15 | 5,5 | 93 | 0 | 0 | 102 | 0 | 1028,1 |
| 9 | Los Maquis | 08-05-2026 02:00 | 5,8 | 93 | 0 | 0 | 180 | 0 | 1028,4 |
| 8 | Los Maquis | 08-05-2026 01:45 | 5,9 | 93 | 0 | 0 | 190 | 0 | 1028,4 |
| 7 | Los Maquis | 08-05-2026 01:30 | 6,1 | 93 | 0 | 0 | 115 | 0 | 1028,8 |
| 6 | Los Maquis | 08-05-2026 01:15 | 6,2 | 93 | 0 | 0 | 180 | 0 | 1028,9 |
| 5 | Los Maquis | 08-05-2026 01:00 | 6,3 | 91 | 0 | 0 | 190 | 0 | 1029,2 |
| 4 | Los Maquis | 08-05-2026 00:45 | 6,7 | 91 | 0 | 0 | 240 | 0 | 1028,9 |
| 3 | Los Maquis | 08-05-2026 00:30 | 7,1 | 90 | 0 | 0 | 286 | 0 | 1028,8 |
| 2 | Los Maquis | 08-05-2026 00:15 | 7,6 | 90 | 0 | 0 | 40 | 0 | 1029,5 |
| 1 | Los Maquis | 08-05-2026 00:00 | 7,8 | 90 | 0 | 0 | 40 | 0 | 1029,2 |